Notices

What's New in latest Release from April 7th, 2021:

- Updated Glossary, including Speed of Maximum Gust, and Total Hourly Precipitation

- Updated national and regional climate services offices contacts and prices information

- Addition of station inventory lists for 1981-2010, 1971-2000, and 1961-1990 Normals.

If you haven't already, please take our survey and provide feedback about our website: https://eccc.sondage-survey.ca/f/LanguageSelection.aspx?s=442ca660-fcf1-47c0-95a9-59707d6fd709

Hourly Data Report for December 03, 2020

FORT GOOD HOPE CS
NORTHWEST TERRITORIES
Current Station Operator: ECCC - MSC

66°14'32.044" N
128°38'39.081" W
81.70 m
2201450
71491
ZGH

Download Data

Hourly Data (December 2020)
Hourly Data Report for December 3, 2020
TIME
LST
Temp Definition
°C
Dew Point Definition
°C
Rel Hum Definition
%
Precip. Amount Definition
mm

Wind Dir Definition
10's deg

Wind Spd Definition
km/h
Visibility Definition
km
Stn Press Definition
kPa
Hmdx Definition


Wind Chill Definition


Weather Definition


00:00 -5.5 -6.6 92 0.0 5 4   97.88   -7 LegendNANA
01:00 -4.4 -5.6 92 0.0 7 6   97.79   -7 LegendNANA
02:00 -4.7 -5.6 94 0.0 4 3   97.75   -6 LegendNANA
03:00 -4.7 -5.7 93 0.0 7 4   97.68   -6 LegendNANA
04:00 -4.1 -5.1 93 0.0 6 5   97.65   -6 LegendNANA
05:00 -4.3 -5.2 94 0.0 2 4   97.67   -6 LegendNANA
06:00 -4.2 -5.1 94 0.0 4 4   97.64   -6 LegendNANA
07:00 -4.1 -5.0 94 0.0 6 5   97.61   -6 LegendNANA
08:00 -3.8 -4.7 94 0.0 4 1   97.67   -4 LegendNANA
09:00 -3.8 -4.8 93 0.0 0 1   97.78   -4 LegendNANA
10:00 -3.5 -3.9 97 0.0 9 4   97.86   -5 LegendNANA
11:00 -3.7 -4.6 93 0.0 18 5   98.05   -6 LegendNANA
12:00 0.1 -2.1 85 0.0 28 8   98.17     LegendNANA
13:00 2.4 -0.5 81 0.0 25 14   98.37     LegendNANA
14:00 4.0 0.8 79 0.9 26 18   98.46     LegendNANA
15:00 3.9 0.7 80 0.0 29 16   98.63     LegendNANA
16:00 3.0 0.0 81 0.0 29 13   98.80     LegendNANA
17:00 2.3 -2.1 73 0.0 30 12   98.97     LegendNANA
18:00 1.1 -4.5 66 0.1 28 26   99.17     LegendNANA
19:00 -0.7 -5.1 72 0.0 28 15   99.36   -5 LegendNANA
20:00 -1.1 -6.0 69 0.0 31 12   99.47   -5 LegendNANA
21:00 -1.6 -7.2 66 0.0 29 13   99.59   -6 LegendNANA
22:00 -2.0 -7.9 64 0.0 29 18   99.62   -7 LegendNANA
23:00 -2.7 -9.4 60 0.0 30 21   99.76   -9 LegendNANA

Notes on Data Quality.

Legend

  • E = Estimated
  • M = Missing
  • NA = Not Available*
  • [empty] = Indicates an unobserved value
Date modified: